カタログに戻る

OPS 6157

運用中軍事GEO
NORAD 6691·PAYLOAD·🇺🇸 United States

打ち上げ Jun 12, 1973 から Cape Canaveral Space Force Station

Loading…

TLE

最新Source: Space-Track

元期: Sep 14, 2026, 13:24 UTC

1 06691U 73040A   26257.55846213  .00000115  00000-0  00000-0 0  9999
2 06691   0.7747 207.1915 0006810  68.7857 139.1253  0.99818501 26834

AllMySatでOPS 6157をリアルタイム追跡

Download on the App Store